Theta_e
328 329 331 331 331 330 329 330 330 330 330 331 330 331 330 330 329 328 328 328 328 328 329 328 327 327 327 328 328 327 326 327 327 326 324 324 322 322 322 322 321 322 322 318 321 318 316 314 317 323 325 325 326 325 325 324 325 326 325 325 324 323 322
329 329 331 331 329 329 328 329 330 330 330 330 330 330 330 329 331 328 328 328 328 328 330 329 328 328 327 327 326 325 325 325 326 327 325 323 323 321 319 318 320 320 319 320 320 319 317 315 315 317 318 323 324 324 323 324 324 325 325 325 325 322 321
329 329 330 329 329 327 326 326 328 328 328 329 329 329 329 329 329 329 328 328 328 329 331 329 329 328 327 327 327 326 326 325 325 326 325 325 324 322 322 319 318 317 318 319 319 318 320 320 315 316 318 318 317 320 323 323 323 324 325 324 321 319 319
328 329 328 328 328 327 326 326 326 327 328 328 328 328 328 328 328 329 329 329 330 331 331 329 328 328 327 327 327 327 326 325 325 325 325 324 324 322 321 321 321 320 319 317 318 318 317 317 317 317 319 320 319 318 321 322 324 325 325 322 319 318 318
328 328 328 326 325 326 326 326 325 326 325 326 326 326 326 327 328 328 329 329 330 330 329 329 328 329 329 328 327 327 326 326 326 325 324 324 323 323 322 322 322 322 320 320 320 320 319 318 319 317 317 318 319 318 320 322 325 325 324 320 318 317 318
327 328 328 326 326 326 326 325 324 324 325 324 324 325 325 326 327 327 328 328 328 329 329 328 328 329 328 328 327 326 326 325 325 325 324 324 324 323 322 321 322 321 321 320 321 320 319 320 320 317 318 320 316 316 320 322 320 320 321 319 318 317 317
326 326 326 326 326 326 326 325 324 324 324 324 324 325 326 326 327 328 329 329 329 329 329 328 328 328 328 328 327 326 326 326 326 325 325 324 324 324 324 321 321 322 320 321 322 321 320 320 318 318 317 316 318 317 318 319 320 319 317 318 317 317 316
325 325 325 325 325 325 325 325 324 324 324 325 325 326 326 326 327 327 328 328 328 328 328 327 328 328 328 328 327 327 327 326 326 325 325 324 323 323 322 323 322 321 321 321 322 322 322 321 320 319 318 314 315 317 316 316 319 318 315 313 317 315 315
326 325 325 324 325 325 325 325 324 324 324 325 324 325 325 327 326 326 327 328 328 327 327 327 327 327 327 327 326 325 325 326 325 324 324 324 324 323 323 322 322 321 321 321 322 322 322 322 322 322 321 319 315 311 314 315 316 316 312 314 311 314 314
325 324 324 324 324 325 324 324 324 324 324 323 323 324 324 325 326 326 326 326 326 326 326 327 327 327 327 327 326 325 324 325 325 324 323 324 324 324 323 322 323 322 321 322 322 322 322 322 322 322 322 320 319 315 312 312 314 315 312 309 315 313 314
325 324 324 324 325 324 323 323 322 322 322 323 324 325 325 325 325 329 326 325 325 325 326 326 327 327 326 326 326 325 326 325 325 323 323 324 323 323 323 322 322 322 322 322 322 322 322 322 322 321 321 319 320 317 315 312 312 316 313 308 310 312 310
325 324 324 324 323 323 323 322 322 323 323 323 324 323 323 324 324 325 324 324 324 325 325 325 326 326 326 325 324 324 324 325 324 323 322 323 322 323 322 322 321 321 322 322 322 322 322 321 321 321 319 319 318 318 317 315 312 314 312 313 309 307 311
325 324 324 321 320 322 323 323 323 322 323 324 323 323 324 324 324 323 323 323 323 323 323 324 325 325 325 325 324 324 324 324 324 323 321 322 323 323 322 322 321 321 321 322 321 321 321 321 321 320 318 318 317 317 317 315 313 315 310 312 311 306 310
324 324 323 323 322 322 323 323 323 324 323 323 323 323 323 324 324 323 323 323 323 322 323 322 323 324 324 323 323 324 323 324 324 323 323 321 323 323 323 323 321 320 322 322 321 321 320 320 320 320 318 317 315 316 317 314 312 307 307 306 308 306 309
323 322 322 322 322 322 322 323 323 323 323 323 324 323 323 324 324 323 323 323 322 322 322 323 322 323 323 322 322 323 324 324 324 323 323 323 322 323 323 323 321 320 321 322 321 321 321 319 318 318 317 317 315 314 317 315 309 308 309 306 305 305 307
324 322 321 321 321 322 322 323 323 323 323 323 323 323 323 323 323 323 323 322 322 321 322 322 321 322 322 322 321 321 323 324 324 322 322 323 323 322 321 322 320 320 320 320 320 321 320 319 320 318 318 317 316 314 313 315 310 308 308 306 306 305 306
323 322 320 320 321 321 322 322 323 323 323 323 323 323 323 323 323 322 322 321 321 321 320 320 320 321 321 321 321 321 321 323 323 323 323 323 323 322 322 320 319 320 319 319 318 319 320 320 319 318 318 317 318 315 313 312 314 311 308 307 304 304 305
320 321 320 321 321 322 322 322 322 323 323 323 323 322 322 322 322 322 322 321 320 320 319 319 319 319 319 320 321 321 321 322 322 323 323 323 325 323 322 322 320 320 319 318 317 318 319 319 319 319 318 317 317 317 314 312 312 310 309 309 307 304 305
321 321 320 321 322 322 322 322 323 323 323 323 322 322 322 321 322 322 322 321 321 320 320 319 319 319 318 318 319 320 320 321 321 321 321 322 323 322 321 320 320 320 319 319 318 318 318 319 318 318 318 317 317 317 316 312 311 310 310 309 308 304 303
322 322 320 320 321 322 322 323 323 323 323 323 322 321 321 321 321 321 321 321 320 320 319 318 318 317 317 317 318 318 318 318 318 319 319 320 320 319 318 318 318 318 319 319 318 317 317 317 317 317 318 318 316 316 315 313 310 309 309 308 305 306 305
321 321 321 321 321 322 322 322 323 323 323 323 322 321 320 320 319 319 319 319 319 319 318 317 316 316 316 316 317 317 317 317 317 317 318 319 318 318 318 319 319 319 320 318 318 316 315 316 316 316 313 314 313 313 313 311 309 309 308 307 307 305 304
322 321 321 321 321 321 322 322 322 322 321 321 320 319 318 318 316 315 315 316 315 315 316 316 314 313 313 313 315 316 316 316 317 316 316 316 317 317 317 319 320 319 320 318 312 312 312 312 314 314 310 312 311 311 308 308 308 307 306 307 305 304 304
321 321 321 321 321 322 322 321 321 320 320 320 319 319 317 314 315 315 313 312 311 312 312 312 311 308 309 313 314 315 316 316 316 316 315 314 314 314 314 315 320 318 313 311 307 302 303 306 310 313 312 310 310 309 307 306 306 306 306 305 305 304 303
315 320 320 321 321 321 321 321 320 319 319 319 318 317 315 313 312 312 312 311 309 309 308 307 299 298 300 305 313 315 315 315 316 315 314 314 313 311 311 311 312 314 311 309 304 299 298 298 299 300 303 307 310 310 308 307 307 307 307 307 305 304 304
311 316 320 320 321 321 321 319 318 319 318 316 316 314 313 312 310 309 309 309 308 307 305 301 296 294 295 300 307 315 315 315 314 313 312 312 312 311 311 310 310 309 308 307 306 304 301 297 296 296 296 296 296 296 301 309 308 308 309 308 308 306 308
309 312 318 320 320 320 320 318 317 316 316 315 313 312 310 308 307 306 307 306 305 305 303 297 298 298 297 299 302 309 315 314 313 311 311 312 312 311 311 311 311 313 314 314 312 308 306 304 300 299 299 300 299 297 295 296 300 312 311 311 310 308 309
306 308 312 317 318 317 317 316 313 312 312 311 310 308 307 305 304 304 304 304 302 301 300 296 297 296 296 298 300 306 313 312 312 312 312 312 311 311 311 311 311 310 311 313 313 313 313 313 312 311 310 308 307 304 299 298 298 299 306 313 313 312 311
305 306 307 309 313 313 311 308 308 306 306 306 305 304 304 302 301 301 301 301 301 300 298 295 295 295 297 299 301 305 314 313 312 311 310 310 310 310 311 311 311 310 310 309 308 311 313 312 311 309 307 305 305 304 304 305 306 308 309 309 311 310 309
303 304 304 303 303 303 303 303 302 302 301 300 300 300 300 300 300 300 301 302 302 300 299 294 295 296 298 300 303 312 313 312 310 309 308 307 306 307 308 308 307 307 306 305 299 299 305 312 310 307 304 304 303 303 302 298 294 297 303 306 307 306 305
302 302 302 302 301 300 300 300 300 300 298 297 296 296 296 297 298 299 299 300 300 299 299 296 295 296 298 300 305 311 310 308 307 305 304 303 304 304 304 303 303 301 300 299 296 296 299 304 309 306 304 302 302 302 303 303 297 293 293 292 292 292 293
301 301 301 300 300 300 299 298 298 298 296 295 295 295 296 297 297 298 297 298 298 298 298 296 295 296 298 300 305 309 307 303 301 299 298 299 300 301 303 303 301 299 299 297 293 295 297 304 306 304 303 302 301 301 302 303 304 302 296 295 295 294 294
301 301 299 299 299 298 297 297 297 297 297 297 296 297 297 295 296 296 297 297 299 297 296 296 294 295 297 300 305 306 304 301 299 298 298 298 299 298 298 298 298 297 297 293 291 292 295 302 305 304 304 302 300 300 301 302 303 303 304 305 305 305 302
300 301 300 300 299 299 299 298 297 297 297 297 296 296 296 296 295 295 296 296 296 296 295 295 294 293 295 297 300 306 304 302 300 299 300 299 299 299 299 298 296 290 290 290 290 290 291 294 301 302 302 301 300 299 301 301 302 303 303 302 302 303 303
299 300 301 301 300 299 299 298 298 297 297 297 296 296 295 295 295 294 295 295 295 295 296 294 293 291 293 294 296 300 304 303 302 301 300 299 299 298 297 297 297 292 290 290 290 290 291 292 295 299 299 299 299 299 298 300 299 299 301 301 300 300 301
298 300 301 301 299 299 299 299 298 298 297 297 296 296 296 295 295 295 295 295 295 294 296 295 293 291 291 292 292 295 301 301 301 300 298 297 297 296 296 296 296 292 290 290 290 291 291 291 292 296 293 290 291 293 299 299 299 300 300 299 299 297 297
295 297 298 300 300 299 299 299 299 298 297 297 296 295 295 295 295 294 294 294 294 294 294 294 292 292 290 290 290 291 292 295 294 300 298 296 295 295 295 295 295 292 290 290 290 290 291 291 292 290 288 289 290 291 294 297 297 297 296 296 296 296 296
294 294 296 297 299 299 299 299 298 298 297 296 295 295 294 295 294 293 293 293 294 294 294 294 293 291 291 290 290 290 290 290 292 295 295 294 294 295 294 294 293 290 290 290 289 289 289 290 289 288 289 290 291 293 296 295 295 295 294 294 295 295 295
Wind_Speed
5 5 7 7 6 7 7 7 6 7 6 5 6 7 7 7 7 7 7 6 6 6 6 6 6 6 6 6 7 7 6 7 9 10 9 8 9 6 3 2 1 3 5 4 6 5 5 6 4 3 3 4 3 2 2 2 2 3 3 3 3 2 2
3 5 5 5 6 6 7 5 6 6 8 8 8 7 7 7 7 7 6 6 6 6 6 5 5 7 8 9 8 7 7 7 7 7 8 9 7 6 5 2 4 4 3 3 6 4 4 5 3 5 3 2 4 2 2 2 2 3 3 3 3 3 2
5 5 5 5 5 6 6 6 5 7 7 7 7 7 6 6 6 6 6 7 7 6 6 6 6 6 7 7 9 9 8 8 6 6 8 8 7 5 5 5 4 4 4 3 3 4 3 1 5 7 5 4 4 2 2 2 3 3 3 4 3 2 2
5 6 5 4 3 3 3 5 6 7 7 7 6 7 7 6 6 6 6 7 6 6 6 6 7 7 7 8 7 7 8 8 7 6 5 5 6 5 6 6 7 8 7 5 7 5 4 4 5 5 6 4 4 4 1 2 3 3 4 3 3 2 2
3 3 4 5 5 3 3 5 4 4 5 5 6 6 6 7 6 6 6 6 6 6 6 6 6 7 7 7 6 7 7 7 6 6 6 7 8 6 5 5 6 6 5 5 6 7 7 6 6 8 7 4 4 2 1 3 3 4 4 3 2 2 2
4 5 5 6 6 6 7 6 5 6 5 6 6 7 7 8 7 6 6 6 6 6 6 6 6 7 7 7 7 7 7 8 7 7 7 8 9 8 7 6 5 5 6 3 5 6 4 5 6 8 5 4 3 2 2 3 2 3 2 3 3 2 2
6 6 6 7 7 7 7 7 6 6 6 7 7 8 7 7 6 6 6 6 6 6 6 7 7 7 7 7 7 8 8 7 7 8 8 8 8 8 6 6 5 6 4 5 6 6 7 7 6 8 8 2 3 3 2 1 3 3 2 2 2 2 2
7 6 6 6 7 8 7 7 7 7 6 7 7 6 6 7 7 6 6 7 6 6 6 6 5 6 6 6 6 8 7 7 8 8 7 8 7 8 7 7 6 5 5 5 7 7 6 7 8 8 9 8 4 4 2 1 3 1 3 1 2 2 2
6 7 6 6 7 6 6 7 6 6 6 5 5 4 5 6 7 7 6 6 6 6 6 6 6 6 6 6 6 6 7 5 7 8 7 8 8 9 9 6 6 6 5 6 6 6 6 6 7 8 8 8 9 6 2 3 2 3 3 3 1 2 3
9 9 9 8 7 6 6 5 5 5 4 4 5 4 6 6 6 7 7 6 6 6 6 6 7 6 6 6 6 7 6 6 7 8 6 7 7 7 6 8 7 6 6 5 5 5 5 5 5 7 7 9 7 7 7 6 5 5 3 3 4 3 3
10 5 4 5 4 3 3 4 3 4 6 5 5 5 6 6 6 7 7 6 6 6 7 6 7 7 7 6 7 7 7 7 6 5 5 6 6 6 6 5 5 5 5 6 6 6 6 6 6 7 6 4 4 7 7 7 7 6 3 3 3 3 2
6 5 3 2 4 1 5 5 5 5 5 6 6 5 5 6 6 6 6 6 6 6 6 6 6 6 6 6 6 6 5 6 6 6 5 6 5 6 6 7 5 5 6 6 5 5 5 5 5 6 4 4 4 4 7 4 5 4 4 5 5 2 4
4 1 2 2 7 10 8 6 6 6 7 6 6 6 6 6 6 6 5 5 6 5 6 5 6 6 6 6 6 6 6 6 6 6 5 4 5 6 7 6 6 6 6 5 5 6 6 5 6 7 5 5 4 5 6 5 4 6 3 3 3 2 3
5 6 10 9 7 5 4 5 6 7 5 6 5 6 6 6 6 6 7 6 7 6 6 6 5 6 6 6 5 6 6 6 7 5 6 5 5 6 6 6 6 5 7 7 6 6 5 6 6 5 5 5 5 5 6 5 5 3 1 1 2 3 3
3 3 2 2 4 3 3 5 6 5 7 7 6 7 7 6 6 7 7 7 7 7 7 7 6 6 6 6 6 5 6 7 6 6 6 6 5 5 5 6 5 6 6 7 7 7 7 6 6 6 5 6 6 6 5 5 4 5 6 2 3 2 3
2 1 1 2 4 6 6 6 5 6 6 6 6 7 7 7 7 7 7 7 7 7 7 7 6 7 7 7 7 6 6 7 7 7 6 6 6 5 5 5 6 6 5 6 7 6 7 7 7 7 7 6 6 6 6 5 5 4 6 5 3 4 4
5 5 3 6 9 7 6 6 6 6 6 5 7 6 7 8 7 8 8 7 8 7 7 6 7 6 8 8 7 7 7 7 7 7 7 7 6 6 6 6 5 6 6 7 7 7 7 7 7 6 8 6 6 7 6 5 5 4 4 6 5 4 4
0 4 7 4 5 5 6 6 5 4 1 3 6 7 7 7 7 8 8 8 8 8 8 8 7 7 6 6 7 7 7 7 7 7 7 7 6 7 7 7 7 7 7 7 7 7 7 9 8 6 7 7 7 6 5 5 5 4 5 6 4 1 2
2 4 5 5 5 6 6 6 5 6 9 9 5 5 7 7 8 8 7 7 8 8 8 8 8 8 8 7 6 7 7 7 7 6 5 5 5 5 6 7 7 8 8 8 8 7 8 10 9 8 8 7 6 6 6 5 5 5 5 4 5 4 2
3 5 4 4 5 6 6 6 7 8 6 7 9 9 6 7 7 8 8 7 7 7 7 7 7 7 7 7 7 7 7 6 5 5 5 6 6 6 6 6 6 6 7 6 7 8 8 8 8 10 9 9 7 7 6 6 6 6 5 4 2 2 3
4 4 4 6 7 6 6 7 8 7 7 7 7 7 7 8 6 5 6 7 6 6 6 6 6 6 7 7 7 7 7 6 6 5 5 5 6 6 7 8 8 8 8 7 7 7 6 8 7 8 6 6 6 7 7 5 6 5 5 4 3 4 2
5 4 5 7 7 7 7 8 9 8 6 5 4 5 3 3 7 6 4 4 5 5 6 6 5 6 6 6 6 7 7 7 7 7 6 5 4 5 5 5 6 5 6 5 6 5 4 2 6 7 6 7 7 6 5 5 5 5 4 5 3 3 4
8 5 5 6 7 7 8 9 9 8 8 7 7 6 4 3 5 8 7 5 3 4 4 4 6 10 8 7 7 6 6 7 7 8 7 6 4 3 3 3 4 7 8 8 6 7 6 5 4 4 7 8 8 7 7 7 6 6 6 5 5 5 4
9 7 6 6 7 8 9 8 7 8 7 7 7 5 4 6 5 5 7 7 6 4 4 3 4 7 8 9 7 7 8 7 7 7 8 8 7 5 4 4 4 6 7 7 9 10 9 10 10 11 9 7 6 9 10 8 6 7 6 5 3 4 4
9 9 6 6 8 9 8 7 8 8 7 7 6 6 5 6 5 5 5 5 6 5 4 2 4 5 6 7 7 8 8 8 7 7 7 7 6 6 6 5 4 4 5 7 8 9 10 12 14 14 14 12 11 9 6 6 8 6 6 6 5 4 5
10 10 8 7 6 8 8 7 7 7 7 6 6 7 5 6 5 4 6 7 5 4 4 2 2 4 6 8 11 10 7 8 8 7 6 6 6 6 6 6 6 5 5 11 8 8 10 11 12 16 16 17 16 14 14 13 9 7 7 8 8 5 3
10 9 10 6 5 5 6 6 4 3 4 5 6 6 5 6 5 4 4 5 5 4 3 4 2 6 8 11 12 10 8 8 8 7 7 6 6 6 5 7 7 7 5 5 5 7 8 8 8 9 10 10 9 11 13 13 13 11 7 8 9 7 2
9 10 9 9 5 1 2 5 5 5 5 5 5 5 6 7 5 5 6 5 5 4 4 4 7 9 11 13 14 11 9 8 8 9 8 7 7 6 5 6 8 8 6 5 4 5 8 9 10 9 10 9 9 8 8 8 7 6 6 6 7 7 5
11 10 11 10 11 10 9 7 6 5 7 7 7 7 6 7 6 7 6 6 6 6 6 7 8 9 13 15 15 9 9 9 9 9 8 7 7 7 7 8 8 8 6 5 6 8 7 7 9 9 9 8 8 7 7 4 5 6 6 5 5 6 4
11 11 10 11 11 11 10 8 7 5 10 9 10 10 7 6 6 7 9 7 7 6 6 8 9 8 12 17 13 9 10 8 9 9 8 6 7 7 6 5 7 6 5 5 5 9 8 7 8 9 8 7 6 7 6 4 6 9 9 9 9 8 7
11 10 10 11 10 9 9 8 8 7 9 10 11 9 8 8 9 8 10 10 7 7 7 10 10 9 8 10 13 11 9 9 9 8 7 7 7 7 9 13 8 7 7 5 8 11 9 9 9 8 9 10 9 8 5 3 3 5 7 9 10 11 11
12 10 10 10 10 10 9 8 6 7 8 10 10 9 11 10 10 9 10 10 13 10 8 10 13 11 12 9 9 9 9 8 10 8 9 9 7 6 6 8 11 9 7 8 11 10 9 9 8 8 8 9 8 7 2 1 3 5 5 7 6 6 8
12 11 10 9 10 10 8 8 7 10 8 9 10 9 10 11 12 9 10 12 10 10 10 9 11 14 12 12 8 7 8 12 9 9 8 8 9 7 6 6 8 10 9 11 12 12 10 9 7 5 5 7 8 6 3 3 3 5 6 6 6 6 7
12 12 10 8 7 9 9 8 6 9 8 8 10 9 11 11 12 10 10 11 11 12 10 9 11 17 15 13 11 8 7 8 8 8 8 7 7 7 6 6 3 8 9 10 11 12 12 12 9 7 6 5 3 6 5 5 5 6 7 7 6 6 6
11 10 10 9 8 9 7 8 7 7 8 9 11 10 9 11 11 10 10 11 10 10 12 16 10 15 16 16 15 12 8 7 6 9 8 6 6 6 6 5 4 6 10 10 12 13 13 12 11 7 7 8 9 10 7 6 5 6 6 6 7 7 6
11 9 9 9 9 9 7 8 7 9 10 9 10 10 10 10 10 9 9 9 8 9 9 10 16 12 15 16 16 15 13 8 8 7 8 7 6 6 4 5 4 8 11 11 11 11 11 12 10 8 10 11 10 10 8 6 7 7 7 6 7 6 4
10 10 11 9 9 9 9 8 8 8 7 8 9 10 9 9 9 10 9 8 8 8 7 7 11 14 12 15 14 15 14 14 12 9 8 7 4 4 4 5 6 11 11 11 13 13 12 11 10 11 11 11 10 8 7 7 7 7 7 7 7 5 4
Wind_Direction
218 173 165 173 163 164 177 170 164 167 168 207 199 203 202 191 185 185 181 174 176 176 175 183 176 165 158 164 174 171 154 171 171 170 170 172 180 196 178 235 66 112 124 71 142 157 144 159 165 97 121 141 133 126 144 146 128 134 122 97 103 81 64
156 144 157 155 160 161 165 164 167 166 169 178 198 207 198 191 187 183 174 172 177 180 183 179 173 166 171 169 168 163 171 175 182 173 166 179 192 190 152 80 102 122 78 67 121 95 136 151 164 175 156 118 124 132 114 104 93 119 125 123 111 93 76
133 137 148 157 167 163 171 177 173 172 174 174 180 195 200 196 186 179 177 179 185 180 184 179 168 170 179 179 178 178 171 174 179 172 180 180 191 171 176 146 133 115 78 70 81 108 90 101 163 177 165 150 146 132 120 99 111 121 126 113 90 77 74
139 140 144 162 117 129 184 196 186 181 178 183 178 187 195 192 191 185 183 185 182 182 180 173 177 180 183 185 182 175 171 176 180 179 170 167 173 167 171 170 161 167 167 167 178 171 151 147 138 155 150 157 142 146 119 97 123 123 118 101 95 88 86
130 139 147 122 130 179 251 257 225 177 186 185 183 183 191 194 190 191 186 180 181 179 184 179 180 183 184 183 176 178 182 182 175 173 167 165 178 179 183 183 178 178 170 165 169 169 166 164 154 159 158 123 114 98 124 105 123 124 120 112 104 101 106
160 171 162 156 176 185 196 220 229 215 190 185 193 190 198 192 188 186 183 180 182 184 180 175 186 181 177 179 181 182 179 180 181 177 174 182 177 180 192 194 177 180 189 164 140 146 119 133 139 142 145 137 136 142 137 138 111 67 92 120 124 118 107
186 182 180 175 184 190 200 202 203 226 202 202 192 199 192 186 188 187 179 182 182 178 178 181 176 178 171 175 180 182 185 189 178 182 188 183 184 191 171 162 184 183 174 161 147 145 149 141 149 151 145 126 128 136 128 124 132 134 104 86 102 111 109
192 194 200 188 187 194 199 207 197 208 213 209 201 197 172 180 182 178 184 184 181 177 170 170 171 176 178 170 178 185 187 177 183 182 186 175 180 181 179 184 177 172 169 163 161 169 163 168 157 157 147 141 129 153 159 85 128 144 140 103 138 141 138
206 200 202 194 200 195 198 208 206 198 216 209 201 169 180 173 175 180 184 187 177 172 171 168 168 179 180 173 173 175 183 168 174 181 181 178 184 185 188 172 156 179 169 169 173 166 174 162 158 160 159 158 148 157 154 155 145 187 155 148 165 174 166
229 204 200 195 196 194 197 209 206 199 204 201 188 176 173 182 178 178 179 176 175 178 174 168 166 180 178 176 173 174 181 177 173 183 169 178 187 180 174 176 183 163 173 166 158 162 157 155 164 168 169 170 166 143 167 187 189 194 213 195 182 184 174
250 255 238 214 208 164 198 221 202 173 199 196 180 183 178 179 179 179 173 172 174 174 179 173 172 174 171 184 175 180 182 170 174 161 175 172 173 172 170 171 161 153 161 169 166 159 162 162 155 169 171 152 170 149 157 179 197 202 195 212 205 155 176
289 313 336 359 59 258 222 204 201 205 192 191 186 179 172 178 181 175 171 166 167 176 172 174 171 167 168 168 169 173 167 168 165 172 172 169 168 163 167 173 163 150 161 163 147 150 156 153 149 160 148 143 128 134 144 132 160 226 174 193 215 210 162
250 40 24 146 186 211 212 195 192 194 202 195 192 177 173 181 178 166 170 164 166 164 167 168 165 162 161 170 167 168 173 166 166 167 163 165 157 168 165 165 168 157 152 144 148 158 157 153 147 159 155 142 127 133 138 134 144 171 195 194 188 170 163
211 188 201 196 214 233 241 212 197 197 183 201 180 178 177 183 179 173 165 169 167 164 165 164 163 158 164 166 175 173 165 170 170 169 155 160 167 166 170 166 165 153 151 151 159 152 154 152 149 150 139 133 135 153 145 139 147 132 124 233 153 165 151
216 254 297 254 218 236 245 228 217 189 193 198 178 177 180 183 185 173 170 170 166 164 167 169 163 160 165 166 173 175 168 171 176 168 164 165 168 177 170 165 149 151 164 154 152 157 155 153 158 155 167 158 153 168 178 138 158 146 182 177 140 80 142
227 268 279 298 249 231 232 225 211 204 205 192 187 183 177 181 186 179 173 171 168 168 170 168 166 166 171 171 172 176 176 176 175 167 173 174 173 162 165 162 155 150 146 142 160 154 154 162 165 170 176 174 167 175 183 171 141 161 166 202 167 157 174
183 123 123 215 225 227 226 222 196 202 205 191 192 190 176 178 182 181 176 174 172 167 162 163 167 176 174 172 171 174 179 184 182 177 178 175 166 167 167 153 161 156 150 147 155 158 163 157 169 176 176 186 173 177 183 177 179 140 167 160 210 189 172
155 175 206 218 231 224 221 216 184 151 105 257 228 190 178 175 183 183 180 177 171 166 167 165 170 175 177 177 173 172 178 183 185 184 180 176 172 169 166 165 159 160 159 150 163 161 164 163 157 175 219 181 185 177 163 178 178 153 149 184 161 168 134
231 214 214 196 196 216 221 224 219 204 189 198 213 246 191 176 184 187 183 176 172 171 170 170 172 175 174 171 170 171 171 178 184 176 170 158 151 156 152 157 169 169 170 168 174 173 167 169 169 174 192 186 184 167 174 171 180 181 175 163 158 146 178
232 232 225 209 218 215 216 219 219 213 197 198 190 208 219 183 191 184 181 173 174 172 171 173 172 173 171 168 170 167 167 168 154 145 139 144 146 140 141 143 158 168 176 186 176 180 173 169 172 185 189 192 183 170 179 180 169 179 176 151 116 135 141
248 226 232 234 226 225 205 207 217 218 201 201 194 195 201 190 184 180 173 172 172 168 165 170 178 176 172 170 167 170 161 149 141 135 139 141 145 154 158 161 166 174 180 186 191 185 181 182 180 181 178 173 169 175 179 159 167 171 170 167 152 158 121
280 236 220 232 233 223 210 203 207 200 186 175 153 159 149 185 159 149 141 156 158 151 162 173 173 176 171 172 169 167 156 147 142 134 128 137 148 150 163 156 156 170 166 149 143 144 167 184 180 168 176 164 156 158 136 145 148 153 157 157 125 95 118
305 258 228 226 232 224 216 208 196 183 183 172 165 187 164 148 183 158 150 134 129 145 159 167 181 178 173 171 173 162 146 150 142 136 134 133 121 103 89 77 105 115 102 100 98 109 116 123 135 158 156 153 142 136 143 139 145 148 139 147 159 138 131
322 292 247 231 230 227 222 211 195 188 179 165 157 154 166 153 178 167 157 155 148 145 145 152 158 161 156 159 154 149 149 147 140 137 140 144 144 127 85 67 71 97 97 88 87 90 103 100 96 98 101 112 137 152 150 136 142 148 141 142 134 129 147
326 312 265 233 226 226 222 210 199 190 172 153 151 143 167 165 158 152 138 142 147 150 153 135 152 183 155 161 157 142 140 141 142 139 137 134 132 122 114 97 83 79 82 108 103 97 90 92 98 96 92 88 84 70 75 137 145 131 133 120 112 131 131
331 325 295 248 224 222 216 209 197 181 176 165 145 151 157 139 142 140 140 143 142 124 140 79 169 179 156 162 146 130 129 132 131 127 127 123 126 127 126 115 98 78 90 104 110 120 117 105 94 93 91 82 68 70 70 66 63 113 132 113 121 129 147
337 336 327 286 228 219 211 199 157 142 136 126 132 124 120 116 111 116 112 120 117 86 83 357 118 146 152 145 126 113 114 109 102 101 98 100 107 107 114 126 117 106 93 103 121 116 106 103 102 91 80 75 76 67 66 69 78 83 101 127 130 128 203
344 353 352 357 346 29 73 71 78 74 84 89 100 116 129 120 105 96 90 91 93 66 13 22 121 135 142 123 110 106 106 102 99 96 90 87 88 90 85 88 104 107 93 79 47 87 110 109 101 93 85 72 65 56 48 32 24 38 62 67 97 107 128
355 5 12 15 28 23 19 30 53 71 83 69 58 58 42 68 84 85 78 78 85 59 31 46 106 130 129 115 105 100 102 102 102 97 88 83 81 81 88 100 103 95 89 72 26 62 86 110 106 102 94 90 84 73 62 45 46 59 75 87 94 110 121
6 10 19 28 31 32 27 18 31 42 75 66 62 51 27 40 50 67 68 57 65 62 47 33 80 108 121 115 105 105 100 94 93 91 83 74 78 83 80 84 98 102 87 69 60 87 86 105 100 99 100 94 89 83 73 66 69 71 72 81 89 96 104
14 15 26 33 30 37 44 32 25 41 69 75 66 60 59 40 40 47 63 56 41 58 50 30 53 80 90 106 121 120 116 107 100 93 89 72 82 77 75 75 73 82 85 77 83 91 99 103 97 98 100 96 81 70 52 35 63 58 73 87 88 85 79
17 19 24 35 43 41 37 47 39 47 63 74 70 67 65 51 40 32 49 60 49 50 50 35 36 56 72 85 107 117 117 113 109 108 108 91 67 78 63 57 60 70 84 77 70 73 85 103 113 124 126 110 101 88 78 81 104 96 90 81 54 76 62
18 20 22 29 48 51 44 42 40 66 49 66 74 68 71 67 57 36 37 45 40 35 39 36 26 44 60 66 79 111 122 120 120 120 116 115 107 83 74 69 58 51 65 84 83 74 63 74 97 104 115 112 117 124 162 112 88 103 88 85 80 66 68
18 21 19 18 29 62 59 42 20 68 64 57 73 68 71 71 66 50 45 47 45 38 34 36 33 40 46 51 55 80 87 97 110 113 115 104 104 109 101 82 36 65 69 75 82 82 80 72 74 75 70 92 90 133 137 113 92 95 95 90 82 69 60
17 21 21 20 28 40 37 63 49 50 66 66 61 55 61 67 66 58 49 46 43 41 36 38 41 39 44 50 49 49 82 84 105 114 96 101 99 92 89 89 80 65 82 85 84 84 84 87 92 93 81 96 104 100 94 86 95 87 79 80 74 62 48
23 16 20 24 30 41 41 41 42 53 55 57 68 67 52 57 59 56 54 46 40 40 33 36 37 41 41 49 50 51 54 63 66 82 106 101 89 93 86 92 86 82 88 89 87 88 89 87 78 82 92 89 91 98 101 91 94 87 79 73 73 64 48
28 25 19 19 30 38 36 37 44 45 55 61 56 57 54 56 59 52 46 45 33 34 34 38 38 39 43 49 56 58 58 57 61 77 78 79 63 68 67 67 92 95 90 87 82 77 75 77 90 92 91 94 96 95 97 95 83 86 83 74 68 59 50